Year,Month,Day,Hour,Minute,Value (Times are PST for temperature in C)
2019,04,19,00,00,10.80
2019,04,19,00,01,10.70
2019,04,19,00,02,10.70
2019,04,19,00,03,10.70
2019,04,19,00,04,10.70
2019,04,19,00,05,10.70
2019,04,19,00,06,10.70
2019,04,19,00,07,10.70
2019,04,19,00,08,10.70
2019,04,19,00,09,10.70
2019,04,19,00,10,10.70
2019,04,19,00,11,10.70
2019,04,19,00,12,10.70
2019,04,19,00,13,10.70
2019,04,19,00,14,10.70
2019,04,19,00,15,10.70
2019,04,19,00,16,10.70
2019,04,19,00,17,10.70
2019,04,19,00,18,10.70
2019,04,19,00,19,10.70
2019,04,19,00,20,10.70
2019,04,19,00,21,10.70
2019,04,19,00,22,10.70
2019,04,19,00,23,10.70
2019,04,19,00,24,10.70
2019,04,19,00,25,10.70
2019,04,19,00,26,10.70
2019,04,19,00,27,10.70
2019,04,19,00,28,10.70
2019,04,19,00,29,10.70
2019,04,19,00,30,10.70
2019,04,19,00,31,10.70
2019,04,19,00,32,10.70
2019,04,19,00,33,10.70
2019,04,19,00,34,10.70
2019,04,19,00,35,10.70
2019,04,19,00,36,10.70
2019,04,19,00,37,10.70
2019,04,19,00,38,10.70
2019,04,19,00,39,10.70
2019,04,19,00,40,10.70
2019,04,19,00,41,10.70
2019,04,19,00,42,10.70
2019,04,19,00,43,10.70
2019,04,19,00,44,10.70
2019,04,19,00,45,10.70
2019,04,19,00,46,10.70
2019,04,19,00,47,10.70
2019,04,19,00,48,10.70
2019,04,19,00,49,10.70
2019,04,19,00,50,10.70
2019,04,19,00,51,10.70
2019,04,19,00,52,10.70
2019,04,19,00,53,10.70
2019,04,19,00,54,10.70
2019,04,19,00,55,10.70
2019,04,19,00,56,10.70
2019,04,19,00,57,10.70
2019,04,19,00,58,10.70
2019,04,19,00,59,10.70
2019,04,19,01,00,10.70
2019,04,19,01,01,10.70
2019,04,19,01,02,10.70
2019,04,19,01,03,10.60
2019,04,19,01,04,10.60
2019,04,19,01,05,10.60
2019,04,19,01,06,10.60
2019,04,19,01,07,10.60
2019,04,19,01,08,10.60
2019,04,19,01,09,10.60
2019,04,19,01,10,10.60
2019,04,19,01,11,10.60
2019,04,19,01,12,10.60
2019,04,19,01,13,10.60
2019,04,19,01,14,10.60
2019,04,19,01,15,10.60
2019,04,19,01,16,10.60
2019,04,19,01,17,10.60
2019,04,19,01,18,10.60
2019,04,19,01,19,10.60
2019,04,19,01,20,10.60
2019,04,19,01,21,10.60
2019,04,19,01,22,10.60
2019,04,19,01,23,10.60
2019,04,19,01,24,10.60
2019,04,19,01,25,10.60
2019,04,19,01,26,10.60
2019,04,19,01,27,10.60
2019,04,19,01,28,10.60
2019,04,19,01,29,10.60
2019,04,19,01,30,10.60
2019,04,19,01,31,10.60
2019,04,19,01,32,10.60
2019,04,19,01,33,10.60
2019,04,19,01,34,10.60
2019,04,19,01,35,10.60
2019,04,19,01,36,10.60
2019,04,19,01,37,10.60
2019,04,19,01,38,10.60
2019,04,19,01,39,10.60
2019,04,19,01,40,10.60
2019,04,19,01,41,10.60
2019,04,19,01,42,10.60
2019,04,19,01,43,10.60
2019,04,19,01,44,10.60
2019,04,19,01,45,10.60
2019,04,19,01,46,10.60
2019,04,19,01,47,10.60
2019,04,19,01,48,10.60
2019,04,19,01,49,10.60
2019,04,19,01,50,10.60
2019,04,19,01,51,10.60
2019,04,19,01,52,10.60
2019,04,19,01,53,10.60
2019,04,19,01,54,10.60
2019,04,19,01,55,10.60
2019,04,19,01,56,10.60
2019,04,19,01,57,10.60
2019,04,19,01,58,10.60
2019,04,19,01,59,10.60
2019,04,19,02,00,10.60
2019,04,19,02,01,10.60
2019,04,19,02,02,10.60
2019,04,19,02,03,10.60
2019,04,19,02,04,10.60
2019,04,19,02,05,10.60
2019,04,19,02,06,10.60
2019,04,19,02,07,10.60
2019,04,19,02,08,10.70
2019,04,19,02,09,10.70
2019,04,19,02,10,10.70
2019,04,19,02,11,10.70
2019,04,19,02,12,10.70
2019,04,19,02,13,10.70
2019,04,19,02,14,10.70
2019,04,19,02,15,10.70
2019,04,19,02,16,10.70
2019,04,19,02,17,10.70
2019,04,19,02,18,10.70
2019,04,19,02,19,10.70
2019,04,19,02,20,10.70
2019,04,19,02,21,10.70
2019,04,19,02,22,10.70
2019,04,19,02,23,10.70
2019,04,19,02,24,10.70
2019,04,19,02,25,10.70
2019,04,19,02,26,10.70
2019,04,19,02,27,10.70
2019,04,19,02,28,10.70
2019,04,19,02,29,10.70
2019,04,19,02,30,10.70
2019,04,19,02,31,10.70
2019,04,19,02,32,10.70
2019,04,19,02,33,10.70
2019,04,19,02,34,10.70
2019,04,19,02,35,10.70
2019,04,19,02,36,10.70
2019,04,19,02,37,10.70
2019,04,19,02,38,10.70
2019,04,19,02,39,10.70
2019,04,19,02,40,10.70
2019,04,19,02,41,10.70
2019,04,19,02,42,10.70
2019,04,19,02,43,10.70
2019,04,19,02,44,10.70
2019,04,19,02,45,10.70
2019,04,19,02,46,10.70
2019,04,19,02,47,10.70
2019,04,19,02,48,10.70
2019,04,19,02,49,10.70
2019,04,19,02,50,10.70
2019,04,19,02,51,10.70
2019,04,19,02,52,10.70
2019,04,19,02,53,10.70
2019,04,19,02,54,10.70
2019,04,19,02,55,10.70
2019,04,19,02,56,10.70
2019,04,19,02,57,10.70
2019,04,19,02,58,10.70
2019,04,19,02,59,10.70
2019,04,19,03,00,10.70
2019,04,19,03,01,10.70
2019,04,19,03,02,10.70
2019,04,19,03,03,10.70
2019,04,19,03,04,10.70
2019,04,19,03,05,10.70
2019,04,19,03,06,10.70
2019,04,19,03,07,10.70
2019,04,19,03,08,10.70
2019,04,19,03,09,10.70
2019,04,19,03,10,10.70
2019,04,19,03,11,10.70
2019,04,19,03,12,10.70
2019,04,19,03,13,10.70
2019,04,19,03,14,10.70
2019,04,19,03,15,10.70
2019,04,19,03,16,10.70
2019,04,19,03,17,10.70
2019,04,19,03,18,10.70
2019,04,19,03,19,10.70
2019,04,19,03,20,10.70
2019,04,19,03,21,10.70
2019,04,19,03,22,10.70
2019,04,19,03,23,10.70
2019,04,19,03,24,10.70
2019,04,19,03,25,10.70
2019,04,19,03,26,10.70
2019,04,19,03,27,10.70
2019,04,19,03,28,10.70
2019,04,19,03,29,10.70
2019,04,19,03,30,10.70
2019,04,19,03,31,10.70
2019,04,19,03,32,10.70
2019,04,19,03,33,10.70
2019,04,19,03,34,10.70
2019,04,19,03,35,10.70
2019,04,19,03,36,10.70
2019,04,19,03,37,10.70
2019,04,19,03,38,10.70
2019,04,19,03,39,10.70
2019,04,19,03,40,10.70
2019,04,19,03,41,10.60
2019,04,19,03,42,10.60
2019,04,19,03,43,10.60
2019,04,19,03,44,10.60
2019,04,19,03,45,10.60
2019,04,19,03,46,10.60
2019,04,19,03,47,10.60
2019,04,19,03,48,10.60
2019,04,19,03,49,10.60
2019,04,19,03,50,10.60
2019,04,19,03,51,10.60
2019,04,19,03,52,10.60
2019,04,19,03,53,10.60
2019,04,19,03,54,10.60
2019,04,19,03,55,10.60
2019,04,19,03,56,10.60
2019,04,19,03,57,10.60
2019,04,19,03,58,10.60
2019,04,19,03,59,10.60
2019,04,19,04,00,10.60
2019,04,19,04,01,10.60
2019,04,19,04,02,10.70
2019,04,19,04,03,10.70
2019,04,19,04,04,10.70
2019,04,19,04,05,10.70
2019,04,19,04,06,10.70
2019,04,19,04,07,10.70
2019,04,19,04,08,10.70
2019,04,19,04,09,10.70
2019,04,19,04,10,10.70
2019,04,19,04,11,10.70
2019,04,19,04,12,10.70
2019,04,19,04,13,10.70
2019,04,19,04,14,10.70
2019,04,19,04,15,10.70
2019,04,19,04,16,10.70
2019,04,19,04,17,10.70
2019,04,19,04,18,10.70
2019,04,19,04,19,10.70
2019,04,19,04,20,10.70
2019,04,19,04,21,10.70
2019,04,19,04,22,10.70
2019,04,19,04,23,10.70
2019,04,19,04,24,10.70
2019,04,19,04,25,10.70
2019,04,19,04,26,10.70
2019,04,19,04,27,10.70
2019,04,19,04,28,10.70
2019,04,19,04,29,10.70
2019,04,19,04,30,10.70
2019,04,19,04,31,10.70
2019,04,19,04,32,10.70
2019,04,19,04,33,10.70
2019,04,19,04,34,10.70
2019,04,19,04,35,10.70
2019,04,19,04,36,10.70
2019,04,19,04,37,10.70
2019,04,19,04,38,10.70
2019,04,19,04,39,10.70
2019,04,19,04,40,10.70
2019,04,19,04,41,10.70
2019,04,19,04,42,10.70
2019,04,19,04,43,10.70
2019,04,19,04,44,10.70
2019,04,19,04,45,10.70
2019,04,19,04,46,10.70
2019,04,19,04,47,10.70
2019,04,19,04,48,10.70
2019,04,19,04,49,10.70
2019,04,19,04,50,10.70
2019,04,19,04,51,10.70
2019,04,19,04,52,10.70
2019,04,19,04,53,10.70
2019,04,19,04,54,10.70
2019,04,19,04,55,10.70
2019,04,19,04,56,10.70
2019,04,19,04,57,10.70
2019,04,19,04,58,10.70
2019,04,19,04,59,10.70
2019,04,19,05,00,10.70
2019,04,19,05,01,10.70
2019,04,19,05,02,10.70
2019,04,19,05,03,10.70
2019,04,19,05,04,10.70
2019,04,19,05,05,10.70
2019,04,19,05,06,10.70
2019,04,19,05,07,10.70
2019,04,19,05,08,10.70
2019,04,19,05,09,10.70
2019,04,19,05,10,10.70
2019,04,19,05,11,10.80
2019,04,19,05,12,10.80
2019,04,19,05,13,10.80
2019,04,19,05,14,10.80
2019,04,19,05,15,10.80
2019,04,19,05,16,10.80
2019,04,19,05,17,10.80
2019,04,19,05,18,10.80
2019,04,19,05,19,10.80
2019,04,19,05,20,10.80
2019,04,19,05,21,10.80
2019,04,19,05,22,10.80
2019,04,19,05,23,10.80
2019,04,19,08,47,12.90
2019,04,19,08,48,12.90
2019,04,19,08,49,12.90
2019,04,19,08,50,13.00
2019,04,19,08,51,12.90
2019,04,19,08,52,13.00
2019,04,19,08,53,13.00
2019,04,19,08,54,13.00
2019,04,19,08,55,13.00
2019,04,19,08,56,13.00
2019,04,19,08,57,13.00
2019,04,19,08,58,13.00
2019,04,19,08,59,13.00
2019,04,19,09,00,13.00
2019,04,19,09,01,13.00
2019,04,19,09,02,13.10
2019,04,19,09,03,13.10
2019,04,19,09,04,13.10
2019,04,19,09,05,13.00
2019,04,19,09,06,13.10
2019,04,19,09,07,13.10
2019,04,19,09,08,13.10
2019,04,19,09,09,13.10
2019,04,19,09,10,13.10
2019,04,19,09,11,13.10
2019,04,19,09,12,13.10
2019,04,19,09,13,13.10
2019,04,19,09,14,13.10
2019,04,19,09,15,13.10
2019,04,19,09,16,13.10
2019,04,19,09,17,13.10
2019,04,19,09,18,13.10
2019,04,19,09,19,13.10
2019,04,19,09,20,13.10
2019,04,19,09,21,13.10
2019,04,19,09,22,13.10
2019,04,19,09,23,13.10
2019,04,19,09,24,13.10
2019,04,19,09,25,13.10
2019,04,19,09,26,13.10
2019,04,19,09,27,13.10
2019,04,19,09,28,13.10
2019,04,19,09,29,13.10
2019,04,19,09,30,13.20
2019,04,19,09,31,13.10
2019,04,19,09,32,13.10
2019,04,19,09,33,13.10
2019,04,19,09,34,13.20
2019,04,19,09,35,13.20
2019,04,19,09,36,13.20
2019,04,19,09,37,13.20
2019,04,19,09,38,13.20
2019,04,19,09,39,13.20
2019,04,19,09,40,13.20
2019,04,19,09,41,13.20
2019,04,19,09,42,13.20
2019,04,19,09,43,13.20
2019,04,19,09,44,13.20
2019,04,19,09,45,13.20
2019,04,19,09,46,13.20
2019,04,19,09,47,13.20
2019,04,19,09,48,13.20
2019,04,19,09,49,13.20
2019,04,19,09,50,13.20
2019,04,19,09,51,13.20
2019,04,19,09,52,13.20
2019,04,19,09,53,13.20
2019,04,19,09,54,13.20
2019,04,19,09,55,13.20
2019,04,19,09,56,13.20
2019,04,19,09,57,13.20
2019,04,19,09,58,13.20
2019,04,19,09,59,13.20
2019,04,19,10,00,13.20
2019,04,19,10,01,13.20
2019,04,19,10,02,13.20
2019,04,19,10,03,13.20
2019,04,19,10,04,13.20
2019,04,19,10,05,13.20
2019,04,19,10,06,13.20
2019,04,19,10,07,13.20
2019,04,19,10,08,13.20
2019,04,19,10,09,13.20
2019,04,19,10,10,13.30
2019,04,19,10,11,13.30
2019,04,19,10,12,13.30
2019,04,19,10,13,13.30
2019,04,19,10,14,13.30
2019,04,19,10,15,13.30
2019,04,19,10,16,13.30
2019,04,19,10,17,13.30
2019,04,19,10,18,13.30
2019,04,19,10,19,13.40
2019,04,19,10,20,13.40
2019,04,19,10,21,13.40
2019,04,19,10,22,13.40
2019,04,19,10,23,13.40
2019,04,19,10,24,13.40
2019,04,19,10,25,13.50
2019,04,19,10,26,13.50
2019,04,19,10,27,13.50
2019,04,19,10,28,13.60
2019,04,19,10,29,13.60
2019,04,19,10,30,13.60
2019,04,19,10,31,13.60
2019,04,19,10,32,13.70
2019,04,19,10,33,13.70
2019,04,19,10,34,13.70
2019,04,19,10,35,13.70
2019,04,19,10,36,13.80
2019,04,19,10,37,13.80
2019,04,19,10,38,13.80
2019,04,19,10,39,13.80
2019,04,19,10,40,13.90
2019,04,19,10,41,13.90
2019,04,19,10,42,13.90
2019,04,19,10,43,13.90
2019,04,19,10,44,13.90
2019,04,19,10,45,13.90
2019,04,19,10,46,13.90
2019,04,19,10,47,13.90
2019,04,19,10,48,13.90
2019,04,19,10,49,13.90
2019,04,19,10,50,13.90
2019,04,19,10,51,13.90
2019,04,19,10,52,13.90
2019,04,19,10,53,13.90
2019,04,19,10,54,13.90
2019,04,19,10,55,13.90
2019,04,19,10,56,13.90
2019,04,19,10,57,13.90
2019,04,19,10,58,13.90
2019,04,19,10,59,14.00
2019,04,19,11,00,14.00
2019,04,19,11,01,14.00
2019,04,19,11,02,14.00
2019,04,19,11,03,14.00
2019,04,19,11,04,14.00
2019,04,19,11,05,13.90
2019,04,19,11,06,13.90
2019,04,19,11,07,13.90
2019,04,19,11,08,13.90
2019,04,19,11,09,13.90
2019,04,19,11,10,13.90
2019,04,19,11,11,13.90
2019,04,19,11,12,13.90
2019,04,19,11,13,13.90
2019,04,19,11,14,13.90
2019,04,19,11,15,13.90
2019,04,19,11,16,13.90
2019,04,19,11,17,13.90
2019,04,19,11,18,13.90
2019,04,19,11,19,13.90
2019,04,19,11,20,13.90
2019,04,19,11,21,13.90
2019,04,19,11,22,13.90
2019,04,19,11,23,13.90
2019,04,19,11,24,13.90
2019,04,19,11,25,13.90
2019,04,19,11,26,13.90
2019,04,19,11,27,13.90
2019,04,19,11,28,13.90
2019,04,19,11,29,13.80
2019,04,19,11,30,13.80
2019,04,19,11,31,13.80
2019,04,19,11,32,13.80
2019,04,19,11,33,13.80
2019,04,19,11,34,13.80
2019,04,19,11,35,13.80
2019,04,19,11,36,13.80
2019,04,19,11,37,13.80
2019,04,19,11,38,13.80
2019,04,19,11,39,13.80
2019,04,19,11,40,13.80
2019,04,19,11,41,13.80
2019,04,19,11,42,13.90
2019,04,19,11,43,13.90
2019,04,19,11,44,13.90
2019,04,19,11,45,13.90
2019,04,19,11,46,14.00
2019,04,19,11,47,14.00
2019,04,19,11,48,14.10
2019,04,19,11,49,14.30
2019,04,19,11,50,14.30
2019,04,19,11,51,14.40
2019,04,19,11,52,14.50
2019,04,19,11,53,14.60
2019,04,19,11,54,14.60
2019,04,19,11,55,14.60
2019,04,19,11,56,14.60
2019,04,19,11,57,14.70
2019,04,19,11,58,14.70
2019,04,19,11,59,14.70
2019,04,19,12,00,14.70
2019,04,19,12,01,14.80
2019,04,19,12,02,14.80
2019,04,19,12,03,14.80
2019,04,19,12,04,14.80
2019,04,19,12,05,14.80
2019,04,19,12,06,14.80
2019,04,19,12,07,14.80
2019,04,19,12,08,14.70
2019,04,19,12,09,14.70
2019,04,19,12,10,14.70
2019,04,19,12,11,14.70
2019,04,19,12,12,14.70
2019,04,19,12,13,14.70
2019,04,19,12,14,14.70
2019,04,19,12,15,14.70
2019,04,19,12,16,14.70
2019,04,19,12,17,14.70
2019,04,19,12,18,14.70
2019,04,19,12,19,14.70
2019,04,19,12,20,14.70
2019,04,19,12,21,14.70
2019,04,19,12,22,14.70
2019,04,19,12,23,14.70
2019,04,19,12,24,14.70
2019,04,19,12,25,14.70
2019,04,19,12,26,14.70
2019,04,19,12,27,14.70
2019,04,19,12,28,14.70
2019,04,19,12,29,14.70
2019,04,19,12,30,14.70
2019,04,19,12,31,14.70
2019,04,19,12,32,14.70
2019,04,19,12,33,14.70
2019,04,19,12,34,14.70
2019,04,19,12,35,14.70
2019,04,19,12,36,14.70
2019,04,19,12,37,14.70
2019,04,19,12,38,14.70
2019,04,19,12,39,14.70
2019,04,19,12,40,14.70
2019,04,19,12,41,14.70
2019,04,19,12,42,14.70
2019,04,19,12,43,14.70
2019,04,19,12,44,14.70
2019,04,19,12,45,14.70
2019,04,19,12,46,14.60
2019,04,19,12,47,14.60
2019,04,19,12,48,14.60
2019,04,19,12,49,14.60
2019,04,19,12,50,14.60
2019,04,19,12,51,14.60
2019,04,19,12,52,14.60
2019,04,19,12,53,14.60
2019,04,19,12,54,14.60
2019,04,19,12,55,14.70
2019,04,19,12,56,14.70
2019,04,19,12,57,14.70
2019,04,19,12,58,14.80
2019,04,19,12,59,14.80
2019,04,19,13,00,14.80
2019,04,19,13,01,14.80
2019,04,19,13,02,14.80
2019,04,19,13,03,14.80
2019,04,19,13,04,14.80
2019,04,19,13,05,14.80
2019,04,19,13,06,14.80
2019,04,19,13,07,14.80
2019,04,19,13,08,14.80
2019,04,19,13,09,14.80
2019,04,19,13,10,14.80
2019,04,19,13,11,14.80
2019,04,19,13,12,14.80
2019,04,19,13,13,14.80
2019,04,19,13,14,14.80
2019,04,19,13,15,14.80
2019,04,19,13,16,14.80
2019,04,19,13,17,14.80
2019,04,19,13,18,14.80
2019,04,19,13,19,14.80
2019,04,19,13,20,14.80
2019,04,19,13,21,14.80
2019,04,19,13,22,14.80
2019,04,19,13,23,14.80
2019,04,19,13,24,14.80
2019,04,19,13,25,14.80
2019,04,19,13,26,14.90
2019,04,19,13,27,14.90
2019,04,19,13,28,14.90
2019,04,19,13,29,14.90
2019,04,19,13,30,14.90
2019,04,19,13,31,14.90
2019,04,19,13,32,14.90
2019,04,19,13,33,14.90
2019,04,19,13,34,15.00
2019,04,19,13,35,15.00
2019,04,19,13,36,15.00
2019,04,19,13,37,15.10
2019,04,19,13,38,15.10
2019,04,19,13,39,15.10
2019,04,19,13,40,15.10
2019,04,19,13,41,15.10
2019,04,19,13,42,15.10
2019,04,19,13,43,15.10
2019,04,19,13,44,15.10
2019,04,19,13,45,15.10
2019,04,19,13,46,15.10
2019,04,19,13,47,15.20
2019,04,19,13,48,15.20
2019,04,19,13,49,15.20
2019,04,19,13,50,15.20
2019,04,19,13,51,15.20
2019,04,19,13,52,15.20
2019,04,19,13,53,15.20
2019,04,19,13,54,15.20
2019,04,19,13,55,15.20
2019,04,19,13,56,15.20
2019,04,19,13,57,15.20
2019,04,19,13,58,15.20
2019,04,19,13,59,15.30
2019,04,19,14,00,15.30
2019,04,19,14,01,15.30
2019,04,19,14,02,15.30
2019,04,19,14,03,15.30
2019,04,19,14,04,15.30
2019,04,19,14,05,15.30
2019,04,19,14,06,15.30
2019,04,19,14,07,15.30
2019,04,19,14,08,15.30
2019,04,19,14,09,15.30
2019,04,19,14,10,15.30
2019,04,19,14,11,15.30
2019,04,19,14,12,15.30
2019,04,19,14,13,15.30
2019,04,19,14,14,15.30
2019,04,19,14,15,15.40
2019,04,19,14,16,15.40
2019,04,19,14,17,15.40
2019,04,19,14,18,15.50
2019,04,19,14,19,15.40
2019,04,19,14,20,15.40
2019,04,19,14,21,15.40
2019,04,19,14,22,15.40
2019,04,19,14,23,15.30
2019,04,19,14,24,15.30
2019,04,19,14,25,15.30
2019,04,19,14,26,15.30
2019,04,19,14,27,15.30
2019,04,19,14,28,15.30
2019,04,19,14,29,15.30
2019,04,19,14,30,15.30
2019,04,19,14,31,15.30
2019,04,19,14,32,15.30
2019,04,19,14,33,15.40
2019,04,19,14,34,15.40
2019,04,19,14,35,15.40
2019,04,19,14,36,15.40
2019,04,19,14,37,15.40
2019,04,19,14,38,15.30
2019,04,19,14,39,15.30
2019,04,19,14,40,15.30
2019,04,19,14,41,15.30
2019,04,19,14,42,15.30
2019,04,19,14,43,15.20
2019,04,19,14,44,15.20
2019,04,19,14,45,15.30
2019,04,19,14,46,15.30
2019,04,19,14,47,15.30
2019,04,19,14,48,15.30
2019,04,19,14,49,15.40
2019,04,19,14,50,15.40
2019,04,19,14,51,15.40
2019,04,19,14,52,15.40
2019,04,19,14,53,15.50
2019,04,19,14,54,15.60
2019,04,19,14,55,15.60
2019,04,19,14,56,15.70
2019,04,19,14,57,15.70
2019,04,19,14,58,15.70
2019,04,19,14,59,15.70
2019,04,19,15,00,15.80
2019,04,19,15,01,15.80
2019,04,19,15,02,15.80
2019,04,19,15,03,15.70
2019,04,19,15,04,15.70
2019,04,19,15,05,15.70
2019,04,19,15,06,15.60
2019,04,19,15,07,15.60
2019,04,19,15,08,15.50
2019,04,19,15,09,15.50
2019,04,19,15,10,15.40
2019,04,19,15,11,15.40
2019,04,19,15,12,15.30
2019,04,19,15,13,15.30
2019,04,19,15,14,15.30
2019,04,19,15,15,15.30
2019,04,19,15,16,15.30
2019,04,19,15,17,15.30
2019,04,19,15,18,15.30
2019,04,19,15,19,15.30
2019,04,19,15,20,15.30
2019,04,19,15,21,15.20
2019,04,19,15,22,14.90
2019,04,19,15,23,14.70
2019,04,19,15,24,14.60
2019,04,19,15,25,14.40
2019,04,19,15,26,14.30
2019,04,19,15,27,14.20
2019,04,19,15,28,14.00
2019,04,19,15,29,14.00
2019,04,19,15,30,13.90
2019,04,19,15,31,13.80
2019,04,19,15,32,13.80
2019,04,19,15,33,13.70
2019,04,19,15,34,13.60
2019,04,19,15,35,13.60
2019,04,19,15,36,13.60
2019,04,19,15,37,13.60
2019,04,19,15,38,13.60
2019,04,19,15,39,13.60
2019,04,19,15,40,13.60
2019,04,19,15,41,13.60
2019,04,19,15,42,13.50
2019,04,19,15,43,13.50
2019,04,19,15,44,13.60
2019,04,19,15,45,13.60
2019,04,19,15,46,13.60
2019,04,19,15,47,13.60
2019,04,19,15,48,13.60
2019,04,19,15,49,13.60
2019,04,19,15,50,13.60
2019,04,19,15,51,13.60
2019,04,19,15,52,13.50
2019,04,19,15,53,13.40
2019,04,19,15,54,13.30
2019,04,19,15,55,13.30
2019,04,19,15,56,13.20
2019,04,19,15,57,13.20
2019,04,19,15,58,13.20
2019,04,19,15,59,13.10
2019,04,19,16,00,13.10
2019,04,19,16,01,13.10
2019,04,19,16,02,13.00
2019,04,19,16,03,13.00
2019,04,19,16,04,13.00
2019,04,19,16,05,13.00
2019,04,19,16,06,13.00
2019,04,19,16,07,13.00
2019,04,19,16,08,13.10
2019,04,19,16,09,13.10
2019,04,19,16,10,13.10
2019,04,19,16,11,13.10
2019,04,19,16,12,13.20
2019,04,19,16,13,13.20
2019,04,19,16,14,13.20
2019,04,19,16,15,13.20
2019,04,19,16,16,13.30
2019,04,19,16,17,13.30
2019,04,19,16,18,13.30
2019,04,19,16,19,13.30
2019,04,19,16,20,13.30
2019,04,19,16,21,13.40
2019,04,19,16,22,13.40
2019,04,19,16,23,13.40
2019,04,19,16,24,13.40
2019,04,19,16,25,13.40
2019,04,19,16,26,13.40
2019,04,19,16,27,13.40
2019,04,19,16,28,13.40
2019,04,19,16,29,13.40
2019,04,19,16,30,13.50
2019,04,19,16,31,13.40
2019,04,19,16,32,13.40
2019,04,19,16,33,13.40
2019,04,19,16,34,13.40
2019,04,19,16,35,13.40
2019,04,19,16,36,13.40
2019,04,19,16,37,13.30
2019,04,19,16,38,13.30
2019,04,19,16,39,13.30
2019,04,19,16,40,13.30
2019,04,19,16,41,13.30
2019,04,19,16,42,13.30
2019,04,19,16,43,13.30
2019,04,19,16,44,13.30
2019,04,19,16,45,13.30
2019,04,19,16,46,13.30
2019,04,19,16,47,13.20
2019,04,19,16,48,13.20
2019,04,19,16,49,13.20
2019,04,19,16,50,13.10
2019,04,19,16,51,13.10
2019,04,19,16,52,13.10
2019,04,19,16,53,13.10
2019,04,19,16,54,13.00
2019,04,19,16,55,13.00
2019,04,19,16,56,12.90
2019,04,19,16,57,12.90
2019,04,19,16,58,12.90
2019,04,19,16,59,12.90
2019,04,19,17,00,12.90
2019,04,19,17,01,12.90
2019,04,19,17,02,12.90
2019,04,19,17,03,12.90
2019,04,19,17,04,12.90
2019,04,19,17,05,12.80
2019,04,19,17,06,12.80
2019,04,19,17,07,12.80
2019,04,19,17,08,12.80
2019,04,19,17,09,12.80
2019,04,19,17,10,12.80
2019,04,19,17,11,12.70
2019,04,19,17,12,12.70
2019,04,19,17,13,12.70
2019,04,19,17,14,12.60
2019,04,19,17,15,12.60
2019,04,19,17,16,12.60
2019,04,19,17,17,12.60
2019,04,19,17,18,12.60
2019,04,19,17,19,12.50
2019,04,19,17,20,12.50
2019,04,19,17,21,12.50
2019,04,19,17,22,12.40
2019,04,19,17,23,12.40
2019,04,19,17,24,12.40
2019,04,19,17,25,12.40
2019,04,19,17,26,12.40
2019,04,19,17,27,12.40
2019,04,19,17,28,12.40
2019,04,19,17,29,12.40
2019,04,19,17,30,12.50
2019,04,19,17,31,12.50
2019,04,19,17,32,12.50
2019,04,19,17,33,12.50
2019,04,19,17,34,12.60
2019,04,19,17,35,12.60
2019,04,19,17,36,12.60
2019,04,19,17,37,12.60
2019,04,19,17,38,12.60
2019,04,19,17,39,12.60
2019,04,19,17,40,12.60
2019,04,19,17,41,12.60
2019,04,19,17,42,12.60
2019,04,19,17,43,12.60
2019,04,19,17,44,12.50
2019,04,19,17,45,12.50
2019,04,19,17,46,12.50
2019,04,19,17,47,12.60
2019,04,19,17,48,12.60
2019,04,19,17,49,12.60
2019,04,19,17,50,12.70
2019,04,19,17,51,12.70
2019,04,19,17,52,12.70
2019,04,19,17,53,12.70
2019,04,19,17,54,12.80
2019,04,19,17,55,12.80
2019,04,19,17,56,12.80
2019,04,19,17,57,12.80
2019,04,19,17,58,12.80
2019,04,19,17,59,12.90
2019,04,19,18,00,12.90
2019,04,19,18,01,12.90
2019,04,19,18,02,12.90
2019,04,19,18,03,12.90
2019,04,19,18,04,12.90
2019,04,19,18,05,12.90
2019,04,19,18,06,12.90
2019,04,19,18,07,12.90
2019,04,19,18,08,12.90
2019,04,19,18,09,12.90
2019,04,19,18,10,12.90
2019,04,19,18,11,12.90
2019,04,19,18,12,12.90
2019,04,19,18,13,12.90
2019,04,19,18,14,13.00
2019,04,19,18,15,13.00
2019,04,19,18,16,13.10
2019,04,19,18,17,13.10
2019,04,19,18,18,13.10
2019,04,19,18,19,13.20
2019,04,19,18,20,13.20
2019,04,19,18,21,13.20
2019,04,19,18,22,13.20
2019,04,19,18,23,13.20
2019,04,19,18,24,13.30
2019,04,19,18,25,13.30
2019,04,19,18,26,13.30
2019,04,19,18,27,13.30
2019,04,19,18,28,13.30
2019,04,19,18,29,13.30
2019,04,19,18,30,13.20
2019,04,19,18,31,13.20
2019,04,19,18,32,13.20
2019,04,19,18,33,13.20
2019,04,19,18,34,13.20
2019,04,19,18,35,13.10
2019,04,19,18,36,13.10
2019,04,19,18,37,13.10
2019,04,19,18,38,13.10
2019,04,19,18,39,13.10
2019,04,19,18,40,13.10
2019,04,19,18,41,13.10
2019,04,19,18,42,13.10
2019,04,19,18,43,13.10
2019,04,19,18,44,13.20
2019,04,19,18,45,13.20
2019,04,19,18,46,13.20
2019,04,19,18,47,13.30
2019,04,19,18,48,13.30
2019,04,19,18,49,13.30
2019,04,19,18,50,13.30
2019,04,19,18,51,13.20
2019,04,19,18,52,13.20
2019,04,19,18,53,13.20
2019,04,19,18,54,13.20
2019,04,19,18,55,13.20
2019,04,19,18,56,13.20
2019,04,19,18,57,13.20
2019,04,19,18,58,13.20
2019,04,19,18,59,13.20
2019,04,19,19,00,13.20
2019,04,19,19,01,13.20
2019,04,19,19,02,13.20
2019,04,19,19,03,13.20
2019,04,19,19,04,13.20
2019,04,19,19,05,13.10
2019,04,19,19,06,13.10
2019,04,19,19,07,13.10
2019,04,19,19,08,13.10
2019,04,19,19,09,13.00
2019,04,19,19,10,13.00
2019,04,19,19,11,12.90
2019,04,19,19,12,12.90
2019,04,19,19,13,12.90
2019,04,19,19,14,12.90
2019,04,19,19,15,12.90
2019,04,19,19,16,12.80
2019,04,19,19,17,12.80
2019,04,19,19,18,12.90
2019,04,19,19,19,12.90
2019,04,19,19,20,12.90
2019,04,19,19,21,12.90
2019,04,19,19,22,12.90
2019,04,19,19,23,12.90
2019,04,19,19,24,12.80
2019,04,19,19,25,12.80
2019,04,19,19,26,12.80
2019,04,19,19,27,12.80
2019,04,19,19,28,12.70
2019,04,19,19,29,12.70
2019,04,19,19,30,12.70
2019,04,19,19,31,12.70
2019,04,19,19,32,12.60
2019,04,19,19,33,12.60
2019,04,19,19,34,12.60
2019,04,19,19,35,12.60
2019,04,19,19,36,12.50
2019,04,19,19,37,12.50
2019,04,19,19,38,12.50
2019,04,19,19,39,12.50
2019,04,19,19,40,12.50
2019,04,19,19,41,12.40
2019,04,19,19,42,12.40
2019,04,19,19,43,12.40
2019,04,19,19,44,12.40
2019,04,19,19,45,12.30
2019,04,19,19,46,12.30
2019,04,19,19,47,12.30
2019,04,19,19,48,12.30
2019,04,19,19,49,12.30
2019,04,19,19,50,12.20
2019,04,19,19,51,12.20
2019,04,19,19,52,12.20
2019,04,19,19,53,12.20
2019,04,19,19,54,12.20
2019,04,19,19,55,12.20
2019,04,19,19,56,12.20
2019,04,19,19,57,12.20
2019,04,19,19,58,12.20
2019,04,19,19,59,12.20
2019,04,19,20,00,12.20
2019,04,19,20,01,12.20
2019,04,19,20,02,12.20
2019,04,19,20,03,12.20
2019,04,19,20,04,12.20
2019,04,19,20,05,12.20
2019,04,19,20,06,12.20
2019,04,19,20,07,12.20
2019,04,19,20,08,12.20
2019,04,19,20,09,12.20
2019,04,19,20,10,12.20
2019,04,19,20,11,12.10
2019,04,19,20,12,12.10
2019,04,19,20,13,12.10
2019,04,19,20,14,12.10
2019,04,19,20,15,12.10
2019,04,19,20,16,12.10
2019,04,19,20,17,12.10
2019,04,19,20,18,12.10
2019,04,19,20,19,12.10
2019,04,19,20,20,12.10
2019,04,19,20,21,12.10
2019,04,19,20,22,12.10
2019,04,19,20,23,12.10
2019,04,19,20,24,12.10
2019,04,19,20,25,12.10
2019,04,19,20,26,12.10
2019,04,19,20,27,12.10
2019,04,19,20,28,12.10
2019,04,19,20,29,12.10
2019,04,19,20,30,12.10
2019,04,19,20,31,12.10
2019,04,19,20,32,12.10
2019,04,19,20,33,12.10
2019,04,19,20,34,12.10
2019,04,19,20,35,12.00
2019,04,19,20,36,12.10
2019,04,19,20,37,12.10
2019,04,19,20,38,12.10
2019,04,19,20,39,12.10
2019,04,19,20,40,12.10
2019,04,19,20,41,12.10
2019,04,19,20,42,12.10